KIRKENES_(CIV/MIL) current weather conditions

sailwx.info

Wind from 360 at 20 knots

Air temperature -6.0° C
Visibility: greater than 5.4 NM
Dewpoint -9.0° C
Present weather: Showers in the vicinity. Light low drifting snow.

Last reported at 2020-Jan-26 08:50 UTC.
Time now 2020-Jan-26 10:18 UTC

Location: N 69°44' E 029°54'.
View on Google Maps.

See reports from other nearby stations

  
Tides and Currents Weather Stations Pressure Air Temp Water Temp Dewpoint Dewpoint Depression Visibility Wind Speed Wind Dir Waves Ship Positions
date/time (UTC)wind fromknots sea level pressurealtimeterstation pressurevisibilityair tempwater tempwave heightnotes
2020-Jan-26 08:50 360 20 5.4-6.0 Showers in the vicinity. Light low drifting snow.
2020-Jan-26 08:20 010 22 4.3-6.0 Light snow showers. Blowing snow.
2020-Jan-26 07:50 010 22 gusting 33 1.1-6.0
2020-Jan-26 07:20 010 21 3.2-6.0 Light snow showers. Blowing snow.
2020-Jan-26 06:50 360 20 gusting 32 3.2-6.0 Showers in the vicinity. Blowing snow.
2020-Jan-26 06:20 010 21 gusting 32 0.7-6.0 Blowing snow.
2020-Jan-26 05:50 360 27 gusting 36 0.6-6.0 Blowing snow.
2020-Jan-26 05:20 350 22 gusting 33 5.4-6.0 Blowing snow.
2020-Jan-26 04:50 310 13 1.6-7.0 Light snow.
2020-Jan-26 04:20 320 17 0.4-7.0 Snow showers.
2020-Jan-26 03:50 320 15 0.5-7.0 Snow showers.
2020-Jan-26 03:20 310 18 5.4-7.0 Light snow. Light low drifting snow.
2020-Jan-26 02:50 310 17 5.4-7.0 Light low drifting snow. Showers in the vicinity.
2020-Jan-26 02:20 330 18 5.4-7.0
2020-Jan-26 01:50 330 21 3.2-7.0
2020-Jan-26 01:20 330 20 4.3-7.0
2020-Jan-26 00:50 330 20 1.4-6.0 Snow grains.
2020-Jan-26 00:20 350 14 5.4-6.0
2020-Jan-25 23:50 350 17 2.2-6.0
2020-Jan-25 23:20 360 19 0.5-6.0
2020-Jan-25 22:50 010 17 0.3-5.0
2020-Jan-25 22:20 360 19 0.1-6.0
2020-Jan-25 21:50 280 17 0.3-10.0 Snow.
2020-Jan-25 21:20 280 13 0.2-11.0 Heavy snow.
2020-Jan-25 20:50 270 17 0.6-11.0 Light snow.
2020-Jan-25 20:20 260 13 5.4-12.0
2020-Jan-25 19:50 260 15 1.6-11.0 Light snow.
2020-Jan-25 19:20 260 15 5.4-12.0
2020-Jan-25 18:50 250 12 5.4-13.0
2020-Jan-25 18:20 250 8 5.4-13.0
2020-Jan-25 17:50 270 12 5.4-11.0
2020-Jan-25 17:20 280 12 5.4-10.0
2020-Jan-25 16:50 290 9 5.4-10.0
2020-Jan-25 16:20 300 8 5.4-9.0
2020-Jan-25 15:50 300 9 5.4-8.0
2020-Jan-25 15:20 300 11 5.4-7.0
2020-Jan-25 14:50 320 15 5.4-7.0
2020-Jan-25 14:20 310 11 5.4-7.0
2020-Jan-25 13:50 330 20 5.4-6.0
2020-Jan-25 13:20 330 17 5.4-6.0
2020-Jan-25 12:50 330 17 5.4-7.0
2020-Jan-25 12:20 310 11 5.4-7.0
2020-Jan-25 11:50 310 9 5.4-8.0
2020-Jan-25 11:20 290 7 5.4-9.0
2020-Jan-25 10:50 5.4-12.0
2020-Jan-25 10:20 270 5 5.4-13.0
2020-Jan-25 09:50 350 5 5.4-13.0 Showers in the vicinity.
2020-Jan-25 09:20 5.4-17.0 Light snow showers.
2020-Jan-25 08:50 170 6 1.9-17.0 Light snow showers.
2020-Jan-25 08:20 170 5 3.8-18.0 Light snow showers.
2020-Jan-25 07:50 170 6 4.9-17.0 Light snow showers.
2020-Jan-25 07:20 190 4 4.3-18.0 Light snow.
2020-Jan-25 06:50 180 4 5.4-18.0
2020-Jan-25 06:20 210 2 5.4-17.0
2020-Jan-25 05:50 1.3-16.0 Light snow.
2020-Jan-25 05:20 250 4 4.9-15.0 Light snow.
2020-Jan-25 04:50 5.4-15.0 Light snow.
2020-Jan-25 04:20 1.2-15.0 Light snow.
2020-Jan-25 03:50 170 4 1.4-16.0 Light snow.
2020-Jan-25 03:20 5.4-17.0 Showers in the vicinity.
2020-Jan-25 02:50 180 4 3.2-16.0 Light snow showers.
2020-Jan-25 02:20 2.2-16.0 Light snow showers.
2020-Jan-25 01:50 160 4 5.4-17.0
2020-Jan-25 01:20 170 5 5.4-17.0
2020-Jan-25 00:50 150 4 5.4-17.0
2020-Jan-25 00:20 170 4 5.4-16.0
2020-Jan-24 23:50 180 4 5.4-16.0
2020-Jan-24 23:20 180 4 5.4-16.0
2020-Jan-24 22:50 170 2 5.4-15.0
2020-Jan-24 22:20 170 4 5.4-15.0
2020-Jan-24 21:50 5.4-15.0
2020-Jan-24 21:20 190 1 5.4-14.0
2020-Jan-24 20:50 5.4-14.0 Light snow showers.
2020-Jan-24 20:20 170 4 5.4-14.0
2020-Jan-24 19:50 170 4 4.3-15.0
2020-Jan-24 19:20 190 2 4.3-15.0
2020-Jan-24 18:50 180 4 5.4-15.0
2020-Jan-24 18:20 170 4 5.4-15.0 Showers in the vicinity.
2020-Jan-24 17:50 180 4 5.4-15.0 Light snow showers.
2020-Jan-24 17:20 160 4 5.4-14.0 Showers in the vicinity.
2020-Jan-24 16:50 170 5 5.4-15.0 Showers in the vicinity.
2020-Jan-24 16:20 180 6 5.4-16.0
2020-Jan-24 15:50 170 5 5.4-15.0
2020-Jan-24 15:20 160 5 5.4-14.0
2020-Jan-24 14:50 170 5 5.4-14.0
2020-Jan-24 14:20 170 4 5.4-14.0
2020-Jan-24 13:50 170 4 5.4-14.0
2020-Jan-24 13:20 170 4 5.4-13.0
2020-Jan-24 12:50 170 2 5.4-12.0 Showers in the vicinity.
2020-Jan-24 12:20 180 2 5.4-13.0 Light snow.
2020-Jan-24 11:50 170 4 5.4-12.0 Light snow.
2020-Jan-24 11:20 160 2 5.4-12.0 Light snow.
2020-Jan-24 10:50 160 2 5.4-12.0 Showers in the vicinity.
2020-Jan-24 10:20 170 4 5.4-12.0